KN4URY Weather Reports


Display with metric or nautical units.
time (UTC)temp
F
wind
direction
speed
MPH
gust
MPH
rain 1hr
in
rain 24hr
in
rain mn
in
humidity
%
barometer
mb
20260903005323 80 341 0.0 0.0 0.00 0.00 0.00 76 1017.6
20260903004821 80 341 0.0 0.0 0.00 0.00 0.00 75 1017.7
20260903004320 81 341 0.0 0.0 0.00 0.00 0.00 74 1017.7
20260903003822 81 341 0.0 0.0 0.00 0.00 0.00 73 1017.7
20260903003323 82 341 0.0 0.0 0.00 0.00 0.00 73 1017.8
20260903002825 82 341 0.0 0.0 0.00 0.00 0.00 72 1017.8
20260903002352 82 341 0.0 0.0 0.00 0.00 0.00 72 1017.6
20260903001812 82 341 0.0 0.0 0.00 0.00 0.00 71 1017.6
20260903001313 83 341 0.0 0.0 0.00 0.00 0.00 71 1017.5
20260903000814 83 341 0.0 1.0 0.00 0.00 0.00 71 1017.4
20260903000333 83 341 0.0 1.0 0.00 0.00 0.00 71 1017.3
20260902235833 84 341 0.0 1.0 0.00 0.00 0.00 69 1017.1
20260902235334 84 341 0.0 1.0 0.00 0.00 0.00 70 1016.8
20260902234834 85 341 0.0 1.0 0.00 0.00 0.00 69 1016.9
20260902234336 85 341 0.0 1.0 0.00 0.00 0.00 69 1016.8
20260902233814 86 341 0.0 1.0 0.00 0.00 0.00 69 1016.6
20260902233315 86 341 0.0 2.0 0.00 0.00 0.00 69 1016.5
20260902232815 87 341 1.0 3.0 0.00 0.00 0.00 68 1016.3
20260902232342 88 341 0.0 1.0 0.00 0.00 0.00 68 1016.3
20260902231820 89 341 0.0 1.0 0.00 0.00 0.00 68 1016.3
20260902231326 89 341 0.0 1.0 0.00 0.00 0.00 66 1016.2
20260902230822 90 341 0.0 1.0 0.00 0.00 0.00 65 1016.5
20260902230324 91 341 0.0 1.0 0.00 0.00 0.00 64 1016.8
20260902225824 91 341 0.0 0.0 0.00 0.00 0.00 64 1016.9
20260902225317 93 341 0.0 0.0 0.00 0.00 0.00 63 1016.9
20260902224818 94 341 0.0 0.0 0.00 0.00 0.00 59 1017.2
20260902224346 97 341 0.0 0.0 0.00 0.00 0.00 58 1017.2
20260902223825 100 341 0.0 0.0 0.00 0.00 0.00 54 1017.5
20260902223352 101 341 0.0 0.0 0.00 0.00 0.00 52 1017.5
20260902222857 101 341 0.0 0.0 0.00 0.00 0.00 53 1017.4
20260902222336 101 341 0.0 0.0 0.00 0.00 0.00 53 1017.6
20260902221833 100 341 0.0 0.0 0.00 0.00 0.00 51 1017.4
20260902221334 101 341 0.0 0.0 0.00 0.00 0.00 51 1017.4
20260902220833 101 341 0.0 1.0 0.00 0.00 0.00 50 1017.3
20260902220332 101 341 0.0 2.0 0.00 0.00 0.00 50 1017.2
20260902215831 102 341 1.0 2.0 0.00 0.00 0.00 47 1017.1
20260902215331 102 341 0.0 1.0 0.00 0.00 0.00 50 1017.2
20260902214812 102 341 0.0 2.0 0.00 0.00 0.00 49 1017.1
20260902214338 102 341 1.0 2.0 0.00 0.00 0.00 48 1017.0
20260902213837 101 341 0.0 3.0 0.00 0.00 0.00 51 1016.9
20260902213337 100 341 1.0 5.0 0.00 0.00 0.00 52 1016.9
20260902212836 99 341 1.0 5.0 0.00 0.00 0.00 53 1016.7
20260902212316 101 341 1.0 3.0 0.00 0.00 0.00 49 1016.7
20260902211816 103 341 2.0 3.0 0.00 0.00 0.00 45 1016.8
20260902211317 104 341 0.0 1.0 0.00 0.00 0.00 48 1016.8
20260902210843 104 341 0.0 2.0 0.00 0.00 0.00 48 1016.7
20260902210328 104 341 0.0 2.0 0.00 0.00 0.00 47 1016.8
20260902205827 104 341 0.0 2.0 0.00 0.00 0.00 47 1016.7
20260902205326 103 341 1.0 2.0 0.00 0.00 0.00 47 1016.7
20260902204829 104 341 1.0 2.0 0.00 0.00 0.00 45 1016.8
20260902204356 104 341 0.0 2.0 0.00 0.00 0.00 46 1016.8
20260902203834 103 341 0.0 1.0 0.00 0.00 0.00 47 1016.8
20260902203331 103 341 0.0 2.0 0.00 0.00 0.00 49 1017.0
20260902202831 102 341 0.0 2.0 0.00 0.00 0.00 50 1017.0
20260902202330 101 341 0.0 1.0 0.00 0.00 0.00 51 1016.9
20260902201857 100 341 0.0 1.0 0.00 0.00 0.00 50 1016.8
20260902201338 101 341 0.0 1.0 0.00 0.00 0.00 48 1016.8
20260902200836 103 341 0.0 1.0 0.00 0.00 0.00 50 1016.8
20260902200336 103 341 0.0 3.0 0.00 0.00 0.00 49 1016.9
20260902195835 103 341 1.0 3.0 0.00 0.00 0.00 48 1016.8
20260902195334 103 341 0.0 3.0 0.00 0.00 0.00 47 1016.9
20260902194835 103 341 1.0 3.0 0.00 0.00 0.00 46 1017.0
20260902194336 103 341 0.0 2.0 0.00 0.00 0.00 47 1017.1
20260902193836 102 341 1.0 2.0 0.00 0.00 0.00 46 1017.2
20260902193337 101 341 1.0 3.0 0.00 0.00 0.00 50 1017.3
20260902192838 100 341 1.0 5.0 0.00 0.00 0.00 45 1017.4
20260902192316 101 341 1.0 5.0 0.00 0.00 0.00 48 1017.5
20260902191816 101 341 1.0 3.0 0.00 0.00 0.00 50 1017.6
20260902191316 100 341 1.0 3.0 0.00 0.00 0.00 48 1017.6
20260902190815 99 341 1.0 4.0 0.00 0.00 0.00 49 1017.5
20260902190313 99 341 2.0 5.0 0.00 0.00 0.00 48 1017.7
20260902185813 98 341 2.0 5.0 0.00 0.00 0.00 49 1017.7
20260902185314 98 341 1.0 5.0 0.00 0.00 0.00 49 1017.8
20260902184813 99 341 2.0 5.0 0.00 0.00 0.00 46 1017.9
20260902184312 100 341 2.0 4.0 0.00 0.00 0.00 49 1017.8
20260902183833 100 341 1.0 4.0 0.00 0.00 0.00 46 1017.9
20260902183334 100 341 1.0 5.0 0.00 0.00 0.00 46 1018.0
20260902182833 100 341 2.0 5.0 0.00 0.00 0.00 48 1018.0
20260902182332 102 341 2.0 4.0 0.00 0.00 0.00 45 1018.0
20260902181830 102 341 1.0 4.0 0.00 0.00 0.00 51 1018.0
20260902181329 101 341 1.0 4.0 0.00 0.00 0.00 52 1018.0
20260902180828 100 341 1.0 2.0 0.00 0.00 0.00 49 1018.0
20260902180328 99 341 1.0 2.0 0.00 0.00 0.00 49 1018.0
20260902175826 100 341 1.0 4.0 0.00 0.00 0.00 48 1018.0
20260902175327 100 341 1.0 4.0 0.00 0.00 0.00 51 1018.1
20260902174853 99 341 2.0 4.0 0.00 0.00 0.00 51 1018.0
20260902174320 99 341 1.0 4.0 0.00 0.00 0.00 49 1018.1
20260902173847 100 341 1.0 3.0 0.00 0.00 0.00 48 1018.0
20260902173327 99 341 0.0 3.0 0.00 0.00 0.00 49 1018.1
20260902172825 99 341 1.0 3.0 0.00 0.00 0.00 50 1018.0
20260902172324 99 341 1.0 3.0 0.00 0.00 0.00 50 1018.0
20260902171823 99 341 0.0 2.0 0.00 0.00 0.00 50 1018.2
20260902171322 98 341 1.0 3.0 0.00 0.00 0.00 51 1018.3
20260902170822 98 341 1.0 4.0 0.00 0.00 0.00 52 1018.4
20260902170320 98 341 1.0 4.0 0.00 0.00 0.00 55 1018.4
20260902165821 98 341 1.0 4.0 0.00 0.00 0.00 52 1018.3
20260902165322 97 341 1.0 5.0 0.00 0.00 0.00 54 1018.4
20260902164845 98 341 2.0 5.0 0.00 0.00 0.00 52 1018.4
20260902164324 98 341 1.0 2.0 0.00 0.00 0.00 51 1018.3
20260902163823 98 341 0.0 2.0 0.00 0.00 0.00 53 1018.3
20260902163322 97 341 1.0 4.0 0.00 0.00 0.00 53 1018.5
20260902162821 97 341 3.0 4.0 0.00 0.00 0.00 54 1018.4
20260902162319 96 341 2.0 3.0 0.00 0.00 0.00 57 1018.5
20260902161846 95 341 0.0 3.0 0.00 0.00 0.00 56 1018.7
20260902161323 95 341 1.0 3.0 0.00 0.00 0.00 59 1018.7
20260902160824 95 341 0.0 3.0 0.00 0.00 0.00 58 1018.7
20260902160323 96 341 1.0 3.0 0.00 0.00 0.00 59 1018.8
20260902155822 95 341 1.0 2.0 0.00 0.00 0.00 60 1018.8
20260902155344 95 341 0.0 3.0 0.00 0.00 0.00 60 1018.8
20260902154821 94 341 1.0 3.0 0.00 0.00 0.00 59 1018.8
20260902154322 94 341 0.0 4.0 0.00 0.00 0.00 63 1018.9
20260902153823 93 341 1.0 4.0 0.00 0.00 0.00 64 1018.9
20260902153321 92 341 1.0 3.0 0.00 0.00 0.00 63 1018.8
20260902152821 92 341 0.0 4.0 0.00 0.00 0.00 63 1018.9
20260902152319 91 341 0.0 4.0 0.00 0.00 0.00 64 1018.9
20260902151845 91 341 0.0 3.0 0.00 0.00 0.00 67 1018.9
20260902151325 90 341 1.0 4.0 0.00 0.00 0.00 68 1019.0
20260902150824 90 341 2.0 4.0 0.00 0.00 0.00 68 1018.8
20260902150328 90 341 1.0 4.0 0.00 0.00 0.00 68 1018.8
20260902145850 89 341 2.0 4.0 0.00 0.00 0.00 69 1019.0
20260902145329 89 341 1.0 4.0 0.00 0.00 0.00 68 1019.0
20260902144829 89 341 0.0 3.0 0.00 0.00 0.00 69 1019.1
20260902144312 88 341 1.0 4.0 0.00 0.00 0.00 70 1019.0
20260902143812 88 341 1.0 4.0 0.00 0.00 0.00 70 1018.9
20260902143338 87 341 1.0 4.0 0.00 0.00 0.00 70 1018.9
20260902142837 87 341 0.0 2.0 0.00 0.00 0.00 72 1018.9
20260902142335 87 341 0.0 2.0 0.00 0.00 0.00 72 1019.0
20260902141836 86 341 0.0 1.0 0.00 0.00 0.00 72 1018.9
20260902141334 86 341 0.0 2.0 0.00 0.00 0.00 73 1018.8
20260902140834 85 341 0.0 1.0 0.00 0.00 0.00 73 1018.8
20260902140332 85 341 0.0 1.0 0.00 0.00 0.00 75 1018.7
20260902135828 85 341 0.0 2.0 0.00 0.00 0.00 76 1018.7
20260902135327 84 341 0.0 2.0 0.00 0.00 0.00 76 1018.7
20260902134829 84 341 0.0 1.0 0.00 0.00 0.00 77 1018.7
20260902134356 83 341 0.0 1.0 0.00 0.00 0.00 77 1018.6
20260902133835 83 341 0.0 2.0 0.00 0.00 0.00 79 1018.5
20260902133335 82 341 1.0 2.0 0.00 0.00 0.00 79 1018.6
20260902132834 82 341 0.0 0.0 0.00 0.00 0.00 80 1018.7
20260902132335 81 341 0.0 0.0 0.00 0.00 0.00 81 1018.5
20260902131834 81 341 0.0 0.0 0.00 0.00 0.00 83 1018.5
20260902131331 81 341 0.0 0.0 0.00 0.00 0.00 83 1018.4
20260902130832 80 341 0.0 0.0 0.00 0.00 0.00 83 1018.4
20260902130331 80 341 0.0 0.0 0.00 0.00 0.00 83 1018.5
20260902125812 79 341 0.0 1.0 0.00 0.00 0.00 84 1018.5
20260902125333 79 341 0.0 1.0 0.00 0.00 0.00 84 1018.5
20260902124831 79 341 0.0 0.0 0.00 0.00 0.00 86 1018.4
20260902124330 78 341 0.0 0.0 0.00 0.00 0.00 85 1018.5
20260902123829 78 341 0.0 3.0 0.00 0.00 0.00 86 1018.5
20260902123328 77 341 0.0 3.0 0.00 0.00 0.00 87 1018.5
20260902122855 77 341 0.0 0.0 0.00 0.00 0.00 88 1018.6
20260902122335 77 341 0.0 0.0 0.00 0.00 0.00 88 1018.5
20260902121835 77 341 0.0 0.0 0.00 0.00 0.00 89 1018.6
20260902121336 76 341 0.0 0.0 0.00 0.00 0.00 89 1018.5
20260902120816 76 341 0.0 0.0 0.00 0.00 0.00 90 1018.5
20260902120316 75 341 0.0 0.0 0.00 0.00 0.00 91 1018.5
20260902115859 74 341 0.0 0.0 0.00 0.00 0.00 90 1018.4
20260902115336 74 341 0.0 0.0 0.00 0.00 0.00 92 1018.5
20260902114835 74 341 0.0 0.0 0.00 0.00 0.00 92 1018.5
20260902114335 73 341 0.0 0.0 0.00 0.00 0.00 93 1018.5
20260902113834 73 341 0.0 0.0 0.00 0.00 0.00 93 1018.5
20260902113331 73 341 0.0 1.0 0.00 0.00 0.00 93 1018.5
20260902112811 73 341 0.0 1.0 0.00 0.00 0.00 93 1018.5
20260902112312 73 341 0.0 0.0 0.00 0.00 0.00 92 1018.4
20260902111838 73 341 0.0 0.0 0.00 0.00 0.00 92 1018.4
20260902111337 73 341 0.0 4.0 0.00 0.00 0.00 92 1018.6
20260902110836 73 341 0.0 4.0 0.00 0.00 0.00 92 1018.5
20260902110337 73 341 0.0 0.0 0.00 0.00 0.00 92 1018.4
20260902105836 73 341 0.0 0.0 0.00 0.00 0.00 92 1018.3
20260902105316 73 341 0.0 0.0 0.00 0.00 0.00 92 1018.2
20260902104818 73 341 0.0 0.0 0.00 0.00 0.00 91 1018.2
20260902104344 73 341 0.0 0.0 0.00 0.00 0.00 91 1018.1
20260902103822 73 341 0.0 0.0 0.00 0.00 0.00 91 1018.2
20260902103321 73 341 0.0 0.0 0.00 0.00 0.00 91 1018.0
20260902102821 73 341 0.0 0.0 0.00 0.00 0.00 91 1018.0
20260902102349 73 341 0.0 0.0 0.00 0.00 0.00 91 1018.0
20260902101852 73 341 0.0 0.0 0.00 0.00 0.00 91 1018.1
20260902101329 73 341 0.0 0.0 0.00 0.00 0.00 91 1017.8
20260902100825 73 341 0.0 0.0 0.00 0.00 0.00 91 1017.7
20260902100329 73 341 0.0 0.0 0.00 0.00 0.00 91 1017.6
20260902095829 73 341 0.0 0.0 0.00 0.00 0.00 91 1017.5
20260902095357 73 341 0.0 0.0 0.00 0.00 0.00 91 1017.6
20260902094834 73 341 0.0 0.0 0.00 0.00 0.00 90 1017.6
20260902094334 73 341 0.0 0.0 0.00 0.00 0.00 91 1017.7
20260902093835 73 341 0.0 0.0 0.00 0.00 0.00 91 1017.7
20260902093334 73 341 0.0 0.0 0.00 0.00 0.00 91 1017.6
20260902092831 73 341 0.0 0.0 0.00 0.00 0.00 91 1017.6
20260902092331 73 341 0.0 0.0 0.00 0.00 0.00 91 1017.6
20260902091830 73 341 0.0 0.0 0.00 0.00 0.00 90 1017.6
20260902091329 74 341 0.0 0.0 0.00 0.00 0.00 90 1017.6
20260902090830 74 341 0.0 0.0 0.00 0.00 0.00 90 1017.6
20260902090330 74 341 0.0 0.0 0.00 0.00 0.00 90 1017.5
20260902085830 74 341 0.0 0.0 0.00 0.00 0.00 90 1017.5
20260902085356 74 341 0.0 0.0 0.00 0.00 0.00 90 1017.4
20260902084834 74 341 0.0 0.0 0.00 0.00 0.00 90 1017.4
20260902084334 74 341 0.0 0.0 0.00 0.00 0.00 90 1017.4
20260902083834 74 341 0.0 0.0 0.00 0.00 0.00 90 1017.3
20260902083334 75 341 0.0 0.0 0.00 0.00 0.00 89 1017.4
20260902082831 75 341 0.0 0.0 0.00 0.00 0.00 89 1017.5
20260902082331 75 341 0.0 0.0 0.00 0.00 0.00 89 1017.4
20260902081832 75 341 0.0 0.0 0.00 0.00 0.00 88 1017.3
20260902081332 75 341 0.0 0.0 0.00 0.00 0.00 88 1017.4
20260902080833 75 341 0.0 0.0 0.00 0.00 0.00 88 1017.4
20260902080333 76 341 0.0 0.0 0.00 0.00 0.00 87 1017.4
20260902075833 76 341 0.0 0.0 0.00 0.00 0.00 86 1017.5
20260902075332 76 341 0.0 0.0 0.00 0.00 0.00 86 1017.4
20260902074833 76 341 0.0 0.0 0.00 0.00 0.00 86 1017.4
20260902074338 76 341 0.0 0.0 0.00 0.00 0.00 86 1017.3
20260902073837 76 341 0.0 0.0 0.00 0.00 0.00 86 1017.3
20260902073337 76 341 0.0 0.0 0.00 0.00 0.00 86 1017.5
20260902072814 76 341 0.0 0.0 0.00 0.00 0.00 86 1017.4
20260902072314 76 341 0.0 0.0 0.00 0.00 0.00 86 1017.4
20260902071841 76 341 0.0 0.0 0.00 0.00 0.00 86 1017.4
20260902071321 76 341 0.0 1.0 0.00 0.00 0.00 87 1017.5
20260902070820 76 341 0.0 1.0 0.00 0.00 0.00 87 1017.4
20260902070321 76 341 0.0 0.0 0.00 0.00 0.00 87 1017.4
20260902065822 76 341 0.0 0.0 0.00 0.00 0.00 87 1017.4
20260902065322 76 341 0.0 0.0 0.00 0.00 0.00 87 1017.5
20260902064849 76 341 0.0 0.0 0.00 0.00 0.00 87 1017.4
20260902064325 76 341 0.0 0.0 0.00 0.00 0.00 88 1017.4
20260902063825 75 341 0.0 1.0 0.00 0.00 0.00 89 1017.4
20260902063347 75 341 0.0 1.0 0.00 0.00 0.00 89 1017.4
20260902062826 75 341 0.0 0.0 0.00 0.00 0.00 89 1017.5
20260902062326 75 341 0.0 0.0 0.00 0.00 0.00 89 1017.5
20260902061851 75 341 0.0 0.0 0.00 0.00 0.00 89 1017.6
20260902061416 75 341 0.0 0.0 0.00 0.00 0.00 89 1017.5
20260902060833 75 341 0.0 0.0 0.00 0.00 0.00 89 1017.6
20260902060333 75 341 0.0 0.0 0.00 0.00 0.00 90 1017.5
20260902055834 75 341 0.0 0.0 0.00 0.00 0.00 89 1017.6
20260902055334 75 341 0.0 0.0 0.00 0.00 0.00 89 1017.5
20260902054830 75 341 0.0 0.0 0.00 0.00 0.00 88 1017.5
20260902054321 75 341 0.0 0.0 0.00 0.00 0.00 88 1017.6
20260902053820 75 341 0.0 0.0 0.00 0.00 0.00 88 1017.5
20260902053318 76 341 0.0 0.0 0.00 0.00 0.00 88 1017.6
20260902052817 76 341 0.0 0.0 0.00 0.00 0.00 87 1017.6
20260902052317 76 341 0.0 0.0 0.00 0.00 0.00 88 1017.6
20260902051819 76 341 0.0 0.0 0.00 0.00 0.00 87 1017.5
20260902051320 77 341 0.0 0.0 0.00 0.00 0.00 87 1017.4
20260902050819 77 341 0.0 0.0 0.00 0.00 0.00 87 1017.5
20260902050319 77 341 0.0 0.0 0.00 0.00 0.00 86 1017.5
20260902045818 77 341 0.0 0.0 0.00 0.00 0.00 86 1017.4
20260902045318 78 341 0.0 0.0 0.00 0.00 0.00 85 1017.3
20260902044820 78 341 0.0 0.0 0.00 0.00 0.00 83 1017.4
20260902044317 78 341 0.0 0.0 0.00 0.00 0.00 81 1017.3
20260902043816 79 341 0.0 0.0 0.00 0.00 0.00 81 1017.2
20260902043315 79 341 0.0 0.0 0.00 0.00 0.00 81 1017.3
20260902042814 80 341 0.0 0.0 0.00 0.00 0.00 81 1017.1
20260902042312 80 341 0.0 0.0 0.00 0.00 0.00 80 1017.1
20260902041838 81 341 0.0 0.0 0.00 0.00 0.00 77 1017.1
20260902041337 81 341 0.0 0.0 0.00 0.00 0.00 76 1017.1
20260902040835 81 341 0.0 0.0 0.00 0.00 0.00 75 1017.0
20260902040335 81 341 0.0 0.0 0.00 0.00 0.00 75 1017.0
20260902035854 81 341 0.0 0.0 0.00 0.00 0.00 75 1016.9
20260902035332 81 341 0.0 0.0 0.00 0.00 0.00 75 1016.8
20260902034826 81 341 0.0 0.0 0.00 0.00 0.00 76 1016.8
20260902034328 81 341 0.0 0.0 0.00 0.00 0.00 75 1016.8
20260902033828 81 341 0.0 0.0 0.00 0.00 0.00 76 1016.7
20260902033329 80 341 0.0 0.0 0.00 0.00 0.00 78 1016.7
20260902032834 80 341 0.0 0.0 0.00 0.00 0.00 78 1016.7
20260902032334 80 341 0.0 0.0 0.00 0.00 0.00 78 1016.7
20260902031840 80 341 0.0 0.0 0.00 0.00 0.00 79 1016.8
20260902031320 80 341 0.0 0.0 0.00 0.00 0.00 79 1016.9
20260902030821 80 341 0.0 0.0 0.00 0.00 0.00 79 1016.8
20260902030322 80 341 0.0 0.0 0.00 0.00 0.00 79 1016.8
20260902025846 80 341 0.0 0.0 0.00 0.00 0.00 79 1016.9
20260902025354 80 341 0.0 0.0 0.00 0.00 0.00 79 1016.8
20260902024835 80 341 0.0 0.0 0.00 0.00 0.00 79 1016.8
20260902024337 80 341 0.0 0.0 0.00 0.00 0.00 79 1016.9
20260902023816 80 341 0.0 0.0 0.00 0.00 0.00 78 1016.8
20260902023317 81 341 0.0 0.0 0.00 0.00 0.00 79 1016.9
20260902022818 81 341 0.0 0.0 0.00 0.00 0.00 78 1016.9
20260902022319 80 341 0.0 0.0 0.00 0.00 0.00 78 1016.8
20260902021825 80 341 0.0 0.0 0.00 0.00 0.00 79 1016.8
20260902021326 79 341 0.0 0.0 0.00 0.00 0.00 80 1016.9
20260902020827 79 341 0.0 1.0 0.00 0.00 0.00 80 1016.8
20260902020322 79 341 0.0 1.0 0.00 0.00 0.00 81 1016.7
20260902015823 80 341 0.0 0.0 0.00 0.00 0.00 80 1016.5
20260902015324 80 341 0.0 0.0 0.00 0.00 0.00 80 1016.5
20260902014824 80 341 0.0 0.0 0.00 0.00 0.00 80 1016.5
20260902014324 80 341 0.0 0.0 0.00 0.00 0.00 79 1016.4
20260902013854 80 341 0.0 0.0 0.00 0.00 0.00 80 1016.4
20260902013331 80 341 0.0 0.0 0.00 0.00 0.00 80 1016.3
20260902012812 79 341 0.0 0.0 0.00 0.00 0.00 80 1016.3
20260902012337 79 341 0.0 0.0 0.00 0.00 0.00 82 1016.4
20260902011837 80 341 0.0 0.0 0.00 0.00 0.00 82 1016.3
20260902011316 80 341 0.0 1.0 0.00 0.00 0.00 81 1016.2
20260902010812 80 341 0.0 1.0 0.00 0.00 0.00 81 1016.3
20260902010312 79 341 0.0 0.0 0.00 0.00 0.00 81 1016.2
20260902005813 79 341 0.0 0.0 0.00 0.00 0.00 84 1016.1